Location: Boullarre
(49.1305°N, 3.0047°E)
Time: 15:01:02
(UTC+00:00)

Daily predictions for brighter satellites

Satellite Brightness Start Highest point End
(mag) Time Altitude Azimuth Time Altitude Azimuth Time Altitude Azimuth
BREEZE-M DEB (TANK) 2.9 17:17:21 10° WSW 17:20:12 52° SSE 17:25:36 10° E
Cosmos 407 Rocket 3.5 17:15:38 10° S 17:20:42 63° ESE 17:25:47 10° NNE
ATLAS CENTAUR R/B 1.9 17:17:12 10° SW 17:21:54 72° NW 17:26:27 10° NE
Cosmos 1544 Rocket 4.1 17:22:16 10° NNW 17:26:33 63° W 17:30:49 10° S
Cosmos 1726 Rocket 4.4 17:25:12 10° N 17:28:55 27° ENE 17:32:37 10° SE
Cosmos 1140 Rocket 3.5 17:24:13 10° SSW 17:29:23 87° ESE 17:34:35 10° NNE
ISS -2.3 17:29:20 10° WNW 17:32:30 38° SSW 17:35:39 10° SE
Cosmos 1655 Rocket 4.0 17:27:10 10° N 17:33:29 87° E 17:39:42 10° S
DMSP B5D2-2 4.1 17:29:07 10° NNE 17:34:23 62° E 17:39:35 10° S
SL-08 ROCKET BODY 4.3 17:32:24 10° N 17:38:15 62° ENE 17:44:00 10° SSE
IKONOS-2 4.5 17:35:10 10° NNE 17:39:27 72° ESE 17:43:41 10° S
Cosmos 1190 Rocket 4.1 17:35:26 10° S 17:40:38 60° ESE 17:45:52 10° NNE
Meteor PRIRODA 4.1 17:37:22 10° S 17:40:53 64° WSW 17:44:26 10° NNW
USA 290 3.5 17:39:09 10° SW 17:42:13 41° WNW 17:45:18 10° N
PSLV R/B 4.5 17:40:00 10° SE 17:43:10 28° ENE 17:46:24 10° N
Cosmos 1633 3.7 17:40:52 10° SE 17:43:21 20° E 17:45:51 10° NE
Cosmos 1461 4.0 17:40:06 10° S 17:43:44 28° ESE 17:47:01 13° ENE
Cosmos 2266 Rocket 4.4 17:38:14 10° NNW 17:44:30 70° W 17:50:37 10° S
Cosmos 1408 2.3 17:41:38 10° S 17:45:01 75° E 17:48:28 10° NNE
Okean O Rocket 2.9 17:42:02 10° ESE 17:45:19 21° ENE 17:48:37 10° NNE
Cosmos 1844 Rocket 2.7 17:42:03 10° NNW 17:47:34 57° NE 17:53:03 10° SE
Cosmos 1328 3.8 17:45:17 10° S 17:49:16 88° E 17:53:14 10° N
NOAA 6 4.5 17:48:04 10° S 17:53:11 67° WSW 17:58:22 10° NNW
Lacrosse 5 rocket 1.4 17:49:48 10° NW 17:53:16 45° NNE 17:55:52 17° E
DELTA 2 DEB (DPAF) 4.3 17:49:39 10° NNE 17:54:03 76° WNW 17:58:26 10° SSW
Meteor 1-11 4.4 17:48:34 10° S 17:54:12 54° E 17:59:50 10° NNE
CZ-4B DEB 4.1 17:49:00 10° SSE 17:54:24 70° ENE 17:59:52 10° NNW
CZ-4B R/B 3.5 17:51:54 10° SE 17:56:54 41° ENE 18:02:00 10° N
SKYMED 2 3.5 17:57:34 10° NNE 18:01:57 75° ESE 18:06:17 10° S
Cosmos 1553 Rocket 4.3 17:56:29 10° SSE 18:02:05 40° E 18:07:47 10° NNE
Cosmos 1844 3.7 17:57:49 10° NNW 18:03:37 65° ENE 18:09:20 10° SE
SKYMED 3 4.5 18:00:49 10° NNE 18:04:53 55° E 18:08:57 10° S
CZ-4 R/B 2.1 18:02:09 10° SE 18:05:46 31° ENE 18:09:21 10° N
Cosmos 468 Rocket 3.9 18:01:13 10° NNW 18:06:26 80° ENE 18:11:34 10° SSE
Cosmos 2058 Rocket 3.5 18:02:24 10° N 18:06:31 37° ENE 18:10:37 10° SE
Cosmos 1892 2.5 18:03:08 10° S 18:06:51 85° ESE 18:10:39 10° N
Cosmos 2278 4.3 18:03:18 10° SW 18:08:54 58° WNW 18:14:33 10° NNE
CZ-4C R/B 3.1 18:05:37 10° NNE 18:09:29 74° ESE 18:13:08 10° S
Cosmos 2360 Rocket 2.5 18:05:40 10° S 18:10:58 44° ESE 18:15:52 12° NE
Cosmos 2219 Rocket 3.3 18:07:13 10° SSE 18:11:19 21° E 18:12:21 20° E
YAOGAN 1 2.6 18:08:18 10° SSE 18:12:31 56° ENE 18:16:46 10° N
RESURS DK-1 2.3 18:12:06 10° NNW 18:16:12 66° ENE 18:20:18 10° SE
Cosmos 1825 2.0 18:13:10 10° S 18:16:50 68° E 18:20:31 10° NNE
Cosmos 1954 Rocket 3.9 18:12:56 10° SSW 18:18:11 84° ESE 18:23:26 10° NNE
Cosmos 2278 Rocket 3.5 18:14:26 10° N 18:18:33 20° NE 18:19:41 19° NE
Cosmos 2333 Rocket 2.8 18:14:14 10° S 18:19:16 35° ESE 18:22:21 20° NE
IGS 5A 4.2 18:20:49 28° E 18:21:30 30° ENE 18:25:06 10° N
MOS 1-B 4.3 18:17:00 10° SSE 18:22:45 70° ENE 18:28:32 10° NNW
Cosmos 2322 Rocket 2.1 18:17:30 10° SSW 18:23:05 77° ESE 18:28:44 10° NNE
Cosmos 1763 Rocket 4.0 18:18:32 10° NNW 18:23:40 62° WSW 18:28:41 10° S
USA 215 4.4 18:17:56 10° SSE 18:24:04 42° SW 18:30:15 10° WNW
Meteor 2-12 Rocket 4.4 18:19:12 10° N 18:25:19 84° ENE 18:31:23 10° S
Cosmos 1850 Rocket 4.4 18:25:16 10° S 18:30:02 39° ESE 18:32:18 26° NE
ATLAS 2AS CENTAUR R/B 3.3 18:24:51 10° NW 18:31:42 57° WSW 18:38:08 10° SSE
BlueWalker 3 2.6 18:28:10 10° WNW 18:31:55 44° N 18:33:03 34° NE
SL-4 R/B 1.9 18:28:40 10° WNW 18:32:09 58° N 18:33:04 43° ENE
Lacrosse 5 1.8 18:28:06 10° SW 18:33:13 82° SE 18:35:50 29° ENE
COSMOS 2428 4.3 18:30:36 10° SE 18:32:20 16° SE 18:32:20 16° SE
Cosmos 1606 Rocket 4.4 18:30:31 10° NNW 18:34:43 52° W 18:38:55 10° S
IRIDIUM 104 4.2 18:29:30 10° N 18:34:46 75° E 18:39:58 10° S
ATLAS 5 CENTAUR R/B 3.9 18:33:47 10° NNW 18:36:06 14° N 18:37:52 12° NNE
Cosmos 841 Rocket 3.4 18:31:05 10° NNW 18:36:22 71° ENE 18:41:36 10° SSE
S3M 4.2 18:31:15 10° SSE 18:37:17 46° E 18:43:19 10° NNE
Feng Yun 1-1 Rocket 4.2 18:32:04 10° SE 18:37:30 58° ENE 18:42:50 10° N
SL-16 R/B 2.6 18:32:09 10° SW 18:37:46 64° WNW 18:43:26 10° NNE
Cosmos 540 Rocket 3.7 18:32:38 10° NNW 18:37:48 72° WSW 18:42:53 10° SSE
Cosmos 1741 Rocket 4.3 18:32:52 10° S 18:37:52 44° ESE 18:40:09 28° NE
Cosmos 1340 2.4 18:34:34 10° N 18:38:13 72° ENE 18:41:53 10° SSE
In-Cosmos 22 Rocket 4.3 18:32:25 10° SSW 18:38:14 86° WNW 18:44:07 10° NNE
Cosmos 1606 4.1 18:36:44 10° N 18:38:34 23° NNE 18:38:34 23° NNE
Cosmos 2333 4.4 18:35:03 10° S 18:40:22 47° ESE 18:42:55 29° NE
CSL-04 Debris 4.5 18:39:41 28° ESE 18:41:54 42° ENE 18:46:57 10° N
IRIDIUM 114 4.2 18:38:38 10° N 18:43:54 88° E 18:49:07 10° S
Gblst 52 Del rocket 4.1 18:38:52 10° WSW 18:44:29 86° NNW 18:46:47 36° ENE
MINOTAUR 4 R/B 3.7 18:46:22 54° NNE 18:47:03 81° ESE 18:50:27 10° SSW
Cosmos 1892 Rocket 3.6 18:43:38 10° SSW 18:48:03 79° W 18:52:28 10° N
CSL-04 Rocket 4.0 18:47:08 37° E 18:48:13 42° ENE 18:53:17 10° N
COSMO-SKYMED 1 4.0 18:45:49 10° N 18:49:51 38° WNW 18:53:51 10° SW
Cosmos 1980 Rocket 4.3 18:46:18 10° W 18:50:32 21° NW 18:54:47 10° N
Spot 1 4.0 18:51:47 54° ESE 18:51:47 54° ESE 18:55:30 10° S
IRIDIUM 103 4.4 18:47:49 10° N 18:53:03 78° W 18:58:15 10° S
Resurs 01 Rocket 4.1 19:00:02 10° NNE 19:00:02 10° NNE 19:00:06 10° NNE
Cosmos 2315 Rocket 4.4 18:50:53 10° SSE 18:56:42 40° E 19:02:33 10° NNE
Cosmos 1943 Rocket 3.9 18:54:55 10° N 18:57:55 17° NNE 18:57:55 17° NNE
Genesis I 3.1 18:55:56 10° SW 18:59:51 79° SE 18:59:51 79° SE
Cosmos 2322 4.1 18:55:40 10° S 19:00:24 40° ESE 19:00:24 40° ESE
ATLAS CENTAUR R/B 3.8 18:57:48 10° WNW 19:01:10 19° NNW 19:03:35 13° N
Cosmos 1869 4.2 19:00:52 10° NNW 19:04:37 47° W 19:08:23 10° SSW
Lacrosse 4 Rocket 4.1 19:13:42 10° N 19:13:42 10° N 19:13:42 10° N
Cosmos 1633 4.5 19:14:25 10° SW 19:17:20 27° WNW 19:19:32 14° NNW
Okean O Rocket 2.3 19:17:01 10° S 19:21:18 52° W 19:25:39 10° NNW
Cosmos 1745 Rocket 4.2 19:15:39 10° NNW 19:21:54 72° W 19:28:02 10° S
Cosmos 1461 3.9 19:18:12 10° WSW 19:22:23 46° NW 19:23:10 41° NNW
Okean-O 4.3 19:25:58 24° N 19:25:58 24° N 19:27:48 10° N
SJ-6B 4.4 19:26:54 29° NNW 19:26:54 29° NNW 19:28:57 10° NNW
Lacrosse 5 rocket 2.8 19:28:45 10° WNW 19:31:19 31° WSW 19:31:19 31° WSW
Cosmos 1709 Rocket 3.9 19:34:16 10° NNW 19:40:26 80° W 19:43:12 35° S
CZ-4 R/B 3.3 19:37:03 10° SSW 19:40:38 29° W 19:44:12 10° NW
Cosmos 44 Rocket 4.4 19:46:22 10° SW 19:49:10 36° SW 19:49:10 36° SW
Cosmos 2219 Rocket 2.4 19:49:08 10° SW 19:54:10 65° W 19:54:10 65° W
Cosmos 2360 Rocket 3.5 19:49:50 10° WSW 19:55:04 38° NW 19:57:41 25° N
Cosmos 2333 Rocket 3.1 19:57:59 10° SW 20:03:25 46° NW 20:04:26 42° NNW
Cosmos 2278 Rocket 3.1 19:57:52 10° NNW 20:01:33 42° NNW 20:01:33 42° NNW
Cosmos 2322 Rocket 4.1 20:03:12 10° W 20:07:46 25° NW 20:10:38 17° N
Lacrosse 5 3.4 20:11:46 10° W 20:15:03 32° NW 20:15:03 32° NW
ATLAS 5 CENTAUR R/B 4.4 20:18:30 10° NNW 20:19:14 13° NNW 20:19:14 13° NNW
Cosmos 1943 Rocket 4.3 20:37:50 10° NNW 20:39:27 19° NNW 20:39:27 19° NNW
